Location: Colle Santa Colomba
(42.0333°N, 12.5667°E)
Time: 22:09:20
(UTC+00:00)

Cosmos 1980 Rocket - Pass Details

Date: 25 October 2021
Orbit: 828 x 851 km, 71.0° (Epoch: 05 December)

Event Time Altitude Azimuth Distance (km) Brightness Sun altitude
Rises 16:36:47 0° 224° (SW) 3,382 6.4 -5.1°
Reaches altitude 10° 16:39:22 10° 232° (SW) 2,455 5.8 -5.6°
Maximum altitude 16:44:39 40° 302° (WNW) 1,227 3.6 -6.6°
Drops below altitude 10° 16:49:59 10° 11° (N) 2,481 4.4 -7.5°
Sets 16:52:37 0° 19° (NNE) 3,423 5.1 -8.0°
